Location: Ciserano
(45.5833°N, 9.6000°E)
Time: 22:28:48
(UTC+00:00)

FALCON 9 DEB - Pass Details

Date: 19 June 2021
Orbit: 364 x 377 km, 53.0° (Epoch: 26 July)

Event Time Altitude Azimuth Distance (km) Brightness Sun altitude
Rises 00:21:22 0° 294° (WNW) 2,269 6.9 -19.7°
Reaches altitude 10° 00:23:45 10° 311° (NW) 1,414 6.0 -19.6°
Maximum altitude 00:26:14 21° 3° (N) 947 5.7 -19.5°
Drops below altitude 10° 00:28:42 10° 54° (NE) 1,412 6.4 -19.4°
Sets 00:31:05 0° 72° (ENE) 2,263 7.3 -19.3°
